Location: Newark
(54.2500°N, 9.1833°E)
Time: 02:56:05
(UTC+00:00)

Transit 4A - Pass Details

Date: 22 December 2019
Orbit: 871 x 973 km, 66.8° (Epoch: 23 January)

Event Time Altitude Azimuth Distance (km) Brightness Sun altitude
Rises 18:34:29 0° 300° (WNW) 3,534 11.8 -29.3°
Reaches altitude 10° 18:37:30 10° 313° (NW) 2,576 10.7 -29.8°
Enters shadow 18:41:37 24° 356° (N) 1,743 9.3 -30.4°
